Terminal Aerodrome Forecast
Issued by NWS

Home | Current Version | Previous Version | Text Only | Print | Product List | Glossary On
Versions: 1 2 3 4 5 6 7 8 9 10 11 12 13 14 15 16
000
FTUS46 KMTR 312300
TAFOAK
TAF
KOAK 312338Z 0100/0206 30012KT P6SM SCT180
     FM010400 30008KT P6SM SKC
     FM010700 32005KT P6SM BKN010
     FM011700 32009KT P6SM FEW010
     FM012100 30015KT P6SM FEW250
     FM020400 30008KT P6SM FEW250=

USA.gov is the U.S. government's official web portal to all federal, state and local government web resources and services.